Location: Finnegan
(51.1333°N, 112.0833°W)
Time: 21:29:49
(UTC+00:00)

Envisat - Pass Details

Date: 05 December 2021
Orbit: 764 x 766 km, 98.2° (Epoch: 26 January)

Event Time Altitude Azimuth Distance (km) Brightness Sun altitude
Rises 13:13:12 0° 11° (N) 3,248 6.2 -18.2°
Reaches altitude 10° 13:15:33 10° 7° (N) 2,317 5.4 -17.8°
Maximum altitude 13:20:30 53° 291° (WNW) 937 3.1 -17.1°
Drops below altitude 10° 13:25:26 10° 216° (SW) 2,300 5.3 -16.3°
Sets 13:27:46 0° 211° (SSW) 3,221 6.1 -16.0°
